#timestamp,LO_Frequency,Hit,StdDev 
1634616015.4,286047003.9,Y
1634616035.3,286047000.5,P
1634616055.1,286047002.4,N
1634616056.0,286047002.4,N
1634616075.8,286047000.2,N
1634616095.7,286047002.0,N
1634616115.5,286047001.6,N
1634616135.3,286047001.9,N
1634616155.2,286047002.1,N
1634616175.9,286047001.8,N
1634616195.7,286047002.3,N
1634616215.6,286046998.2,N
1634616235.4,286047001.1,N
1634616255.2,286047000.4,N
1634616275.1,286047000.3,N
1634616276.0,286047000.3,N
1634616295.8,286046999.9,N
1634616315.6,286047000.8,N
1634616335.5,286047000.9,N
1634616355.3,286047002.7,N
1634616375.1,286047000.0,N
1634616395.9,286047000.4,N
1634616415.7,286047002.8,N
1634616435.5,286047002.4,N
1634616455.4,286046999.8,N
1634616475.2,286047002.3,N
1634616495.0,286047002.7,N
1634616495.9,286047002.7,N
1634616515.8,286047001.5,N
1634616535.6,286047000.1,N
1634616555.4,286047000.3,N
1634616575.3,286047000.0,N
1634616595.1,286047002.4,N
1634616596.0,286047002.4,N
1634616615.8,286047002.8,N
1634616635.7,286046999.7,N
1634616655.5,286047001.4,N
1634616675.3,286047003.7,Y
1634616695.2,286047003.1,P
1634616715.9,286047006.0,P
1634616735.7,286047004.0,N
1634616755.6,286047003.8,N
1634616775.4,286047002.9,N
1634616795.2,286047001.3,N
1634616815.1,286047002.5,N
1634616816.0,286047002.5,N
1634616835.8,286047002.0,N
1634616855.6,286047002.3,N
1634616875.5,286047001.4,N
1634616895.3,286047005.6,Y
1634616915.1,286047002.5,P
1634616935.9,286047004.3,P
1634616955.7,286046999.9,N
1634616975.5,286046999.7,N
1634616995.4,286047000.7,N
1634617015.2,286046999.2,N
1634617035.0,286046998.2,N
1634617035.9,286046998.2,N
1634617055.8,286047000.6,N
1634617075.6,286046999.9,N
1634617095.4,286047001.2,N
1634617115.3,286047000.4,N
1634617135.1,286047000.5,N
1634617136.0,286047000.5,N
1634617155.8,286047000.4,N
1634617175.7,286047000.7,N
1634617195.5,286047001.1,N
1634617215.3,286046998.4,N
1634617235.2,286046999.3,N
1634617255.9,286047000.8,N
1634617275.7,286047002.0,N
1634617295.6,286047001.5,N
1634617315.4,286047003.7,N
1634617335.2,286047003.9,N
1634617355.1,286047003.7,N
1634617356.0,286047003.7,N
1634617375.8,286047002.5,N
1634617395.6,286046999.8,N
1634617415.5,286047002.7,N
1634617435.3,286047000.6,N
1634617455.1,286046998.2,N
1634617475.9,286047001.2,N
1634617495.7,286047001.2,N
1634617515.5,286047001.1,N
1634617535.4,286046998.2,N
1634617555.2,286047000.6,N
1634617575.0,286046998.1,N
1634617575.9,286046998.1,N
1634617595.8,286046998.8,N
1634617615.6,286047001.1,N
1634617635.4,286046998.5,N
1634617655.3,286047001.2,N
1634617675.1,286046999.4,N
1634617676.0,286046999.4,N
1634617695.8,286046998.9,N
1634617715.7,286046998.3,N
1634617735.5,286046996.6,N
1634617755.3,286046996.6,N
1634617775.2,286047001.2,N
1634617795.9,286046999.4,N
1634617815.7,286046999.0,N
1634617835.6,286046996.7,N
1634617855.4,286046997.7,N
1634617875.2,286046994.9,N
1634617895.1,286046997.9,N
1634617896.0,286046997.9,N
1634617915.8,286046995.0,N
1634617935.6,286046995.9,N
1634617955.5,286046997.4,N
1634617975.3,286046996.0,N
1634617995.1,286046996.3,N
1634618015.9,286046995.7,N
1634618035.7,286046995.1,N
1634618055.5,286046995.8,N
1634618075.4,286046993.6,Y
1634618095.2,286046997.6,P
1634618115.0,286046997.4,P
1634618115.9,286046997.4,P
1634618135.8,286046996.8,Y
1634618155.6,286047000.5,P
1634618175.4,286047000.7,N
1634618195.3,286047000.5,N
1634618215.1,286047002.7,N
1634618235.8,286046999.7,N
1634618255.7,286047000.3,N
1634618275.5,286046999.2,N
1634618295.3,286047000.8,N
1634618315.2,286046998.1,N
1634618335.0,286046998.5,N
1634618335.9,286046998.5,N
1634618355.7,286046999.9,N
1634618375.6,286047001.0,N
1634618395.4,286046999.1,N
1634618415.2,286047001.1,N
1634618435.1,286046998.2,N
1634618436.0,286046998.2,N
1634618455.8,286047000.7,N
1634618475.6,286046998.7,N
1634618495.5,286046997.1,N
1634618515.3,286046997.1,N
1634618535.1,286046996.9,N
1634618555.9,286046997.0,N
1634618575.7,286046996.9,N
1634618595.5,286046996.7,N
1634618615.4,286046997.7,N
1634618635.2,286046997.3,N
1634618655.0,286046995.3,N
1634618655.9,286046995.3,N
1634618675.8,286046996.3,N
1634618695.6,286046994.1,Y
1634618715.4,286046996.0,P
1634618735.3,286046995.4,P
1634618755.1,286046994.9,P
1634618775.8,286046997.8,N
1634618795.7,286046997.3,N
1634618815.5,286046995.0,Y
1634618835.3,286046998.4,P
1634618855.2,286046999.0,N
1634618875.0,286046998.9,N
1634618875.9,286046998.9,N
1634618895.8,286046999.3,N
1634618915.6,286046999.3,N
1634618935.4,286046996.8,Y
1634618955.3,286046998.2,P
1634618975.1,286046999.7,N
1634618976.0,286046999.7,N
1634618995.8,286047004.0,Y
1634619015.7,286047001.3,P
1634619035.5,286047004.0,P
1634619055.3,286047001.9,N
1634619075.2,286047001.3,N
1634619095.9,286047001.4,N
1634619115.7,286047004.2,N
1634619135.6,286047001.8,N
1634619155.4,286047001.5,N
1634619175.2,286047005.6,Y
1634619195.1,286046999.8,P
1634619196.0,286046999.8,N
1634619215.8,286047000.3,N
1634619235.6,286047002.4,N
1634619255.5,286047002.3,N
1634619275.3,286047000.0,N
1634619295.1,286047002.8,N
1634619315.9,286047002.1,N
1634619335.7,286047001.0,N
1634619355.5,286047002.0,N
1634619375.4,286047004.4,Y
1634619395.2,286047000.0,P
1634619415.0,286047002.1,P
1634619415.9,286047002.1,N
1634619435.8,286047001.5,N
1634619455.6,286047004.4,Y
1634619475.4,286047000.7,P
1634619495.3,286046998.9,P
1634619515.1,286046998.6,N
1634619535.8,286046998.4,N
1634619555.7,286046997.3,N
1634619575.5,286046994.9,Y
1634619595.3,286046998.2,P
